Weather History for KART - October, 2013

Change the Weather History Date:

Friday, October 4, 2013

  Actual Average Record
Temperature  
Mean Temperature 55 °F 52 °F  
Max Temperature 62 °F 63 °F 84 °F (1951)
Min Temperature 48 °F 42 °F 23 °F (1974)
Degree Days  
Heating Degree Days 10 13  
Month to date heating degree days 25 50  
Since 1 July heating degree days 299 324  
Cooling Degree Days 0 0  
Month to date cooling degree days 0 0  
Year to date cooling degree days 481 359  
Growing Degree Days 6 (Base 50)    
Moisture  
Dew Point 52 °F    
Average Humidity 84    
Maximum Humidity 89    
Minimum Humidity 78    
Precipitation  
Precipitation 0.03 in 0.13 in 0.77 in (1980)
Month to date precipitation 0.03 0.50  
Year to date precipitation 24.65 26.02  
Sea Level Pressure  
Sea Level Pressure 30.04 in    
Wind  
Wind Speed 6 mph (NE)    
Max Wind Speed 13 mph    
Max Gust Speed 17 mph    
Visibility 10 miles    
Events Rain    
T = Trace of Precipitation, MM = Missing Value Source: NWS Daily Summary

Daily Weather History Graph

Daily Weather History Graph

Search for Another Location

Airport or City:

Trip Planner

Search our weather history database for the weather conditions in past years. The results will help you decide how hot, cold, wet, or windy it might be!

Date:

Astronomy

Oct. 04, 2013 Rise Set
Actual Time 7:05 AM EDT 6:39 PM EDT
Civil Twilight 6:36 AM EDT 7:07 PM EDT
Nautical Twilight 6:03 AM EDT 7:41 PM EDT
Astronomical Twilight 5:29 AM EDT 8:14 PM EDT
Moon 6:39 AM EDT 6:19 PM EDT
Length of Visible Light 12h 31m
Length of Day
11h 33m
Waning Crescent, 0% of the Moon is Illuminated
Oct 4
Waning Crescent
Oct 4
New
Oct 11
First Quarter
Oct 18
Full
Oct 26
Last Quarter

Hourly Weather History & Observations

Time (EDT) Temp. Dew Point Humidity Pressure Visibility Wind Dir Wind Speed Gust Speed Precip Events Conditions
12:56 AM 50.0 °F 46.9 °F 89% 30.04 in 10.0 mi Calm Calm - N/A   Overcast
2:56 AM 50.0 °F 46.9 °F 89% 30.01 in 10.0 mi Calm Calm - N/A   Mostly Cloudy
3:56 AM 50.0 °F 46.9 °F 89% 30.01 in 10.0 mi ENE 3.5 mph - N/A   Partly Cloudy
4:56 AM 51.1 °F 48.0 °F 89% 30.01 in 10.0 mi Calm Calm - N/A   Overcast
5:56 AM 53.1 °F 48.9 °F 86% 30.02 in 10.0 mi NNE 5.8 mph - N/A   Mostly Cloudy
6:56 AM 52.0 °F 48.9 °F 89% 30.03 in 10.0 mi NNE 4.6 mph - N/A   Mostly Cloudy
7:56 AM 53.1 °F 50.0 °F 89% 30.05 in 10.0 mi NNE 3.5 mph - 0.00 in Rain Light Rain
8:56 AM 55.9 °F 52.0 °F 87% 30.06 in 10.0 mi NE 4.6 mph - 0.00 in   Overcast
9:56 AM 57.0 °F 53.1 °F 87% 30.07 in 10.0 mi North 3.5 mph - N/A   Overcast
10:56 AM 57.0 °F 53.1 °F 87% 30.06 in 10.0 mi East 4.6 mph - 0.02 in   Overcast
11:56 AM 59.0 °F 53.1 °F 81% 30.06 in 10.0 mi NNE 4.6 mph - N/A   Overcast
12:56 PM 60.1 °F 55.9 °F 86% 30.05 in 10.0 mi NE 9.2 mph - 0.01 in   Overcast
1:32 PM 60.8 °F 55.4 °F 82% 30.04 in 10.0 mi NE 9.2 mph - N/A   Overcast
1:56 PM 60.1 °F 55.9 °F 86% 30.04 in 10.0 mi NE 9.2 mph - N/A   Overcast
2:56 PM 61.0 °F 55.9 °F 83% 30.03 in 10.0 mi NE 8.1 mph - 0.00 in   Overcast
3:56 PM 62.1 °F 55.9 °F 80% 30.02 in 10.0 mi NE 10.4 mph - N/A   Overcast
4:56 PM 61.0 °F 54.0 °F 78% 30.03 in 10.0 mi NE 11.5 mph - N/A   Overcast
5:56 PM 61.0 °F 53.1 °F 75% 30.03 in 10.0 mi NNE 8.1 mph - N/A   Overcast
6:56 PM 60.1 °F 54.0 °F 80% 30.04 in 10.0 mi NE 8.1 mph - N/A   Overcast
7:56 PM 60.1 °F 54.0 °F 80% 30.05 in 10.0 mi North 6.9 mph - N/A   Overcast
8:56 PM 59.0 °F 54.0 °F 83% 30.06 in 10.0 mi NE 8.1 mph - N/A   Overcast
9:56 PM 59.0 °F 54.0 °F 83% 30.07 in 10.0 mi NE 5.8 mph - N/A   Overcast
10:19 PM 57.2 °F 53.6 °F 88% 30.06 in 10.0 mi NNE 6.9 mph - N/A   Overcast
10:56 PM 59.0 °F 54.0 °F 83% 30.07 in 10.0 mi ENE 3.5 mph - N/A   Overcast
11:56 PM 57.9 °F 53.1 °F 84% 30.06 in 10.0 mi NE 6.9 mph - N/A   Overcast